CW8484 Weather Reports


Display with metric or nautical units.
time (UTC)temp
F
wind
direction
speed
MPH
gust
MPH
rain 1hr
in
rain 24hr
in
rain mn
in
humidity
%
barometer
mb
20260503205404 49 287 0.0 10.0 0.00 0.04 0.00 49 1006.5
20260503204403 50 292 3.0 8.0 0.00 0.04 0.00 47 1006.5
20260503203404 49 273 1.0 9.0 0.00 0.04 0.00 52 1006.6
20260503202424 48 263 4.0 8.0 0.00 0.04 0.00 49 1006.7
20260503201404 48 309 3.0 10.0 0.00 0.04 0.00 51 1006.8
20260503200404 47 231 3.0 13.0 0.00 0.04 0.00 52 1006.9
20260503195403 48 273 6.0 11.0 0.00 0.04 0.00 52 1007.0
20260503194404 47 253 2.0 8.0 0.00 0.04 0.00 55 1007.1
20260503193403 47 248 5.0 10.0 0.00 0.04 0.00 54 1007.3
20260503192403 47 272 3.0 14.0 0.00 0.04 0.00 53 1007.3
20260503191404 49 293 5.0 12.0 0.00 0.04 0.00 51 1007.3
20260503190403 50 310 3.0 13.0 0.00 0.04 0.00 52 1007.2
20260503185404 49 255 3.0 15.0 0.00 0.04 0.00 53 1007.4
20260503184403 47 272 5.0 11.0 0.00 0.04 0.00 54 1007.4
20260503183425 48 347 1.0 8.0 0.00 0.04 0.00 55 1007.4
20260503182404 47 256 3.0 10.0 0.00 0.04 0.00 56 1007.6
20260503181403 47 270 4.0 8.0 0.00 0.04 0.00 56 1007.6
20260503180404 47 306 2.0 11.0 0.00 0.04 0.00 55 1007.7
20260503175403 47 265 8.0 11.0 0.00 0.04 0.00 55 1007.8
20260503174404 47 274 3.0 10.0 0.00 0.04 0.00 56 1007.8
20260503173403 47 275 4.0 10.0 0.00 0.04 0.00 57 1007.8
20260503172424 46 297 4.0 11.0 0.00 0.04 0.00 56 1007.9
20260503171425 47 288 3.0 12.0 0.00 0.04 0.00 57 1007.9
20260503170404 46 253 6.0 13.0 0.00 0.04 0.00 56 1008.0
20260503150404 47 274 8.0 15.0 0.00 0.04 0.00 58 1008.8
20260503131403 42 290 1.0 11.0 0.00 0.04 0.00 82 1009.5
20260503130403 43 274 3.0 8.0 0.00 0.05 0.00 80 1009.5
20260503110403 37 222 0.0 2.0 0.00 0.08 0.00 90 1009.4
20260503090403 36 223 0.0 0.0 0.00 0.10 0.00 91 1009.5
20260503081403 37 223 0.0 0.0 0.00 0.11 0.00 91 1009.8
20260503080403 37 223 0.0 0.0 0.00 0.11 0.00 91 1009.8
20260503072403 37 223 0.0 0.0 0.00 0.11 0.00 92 1009.8
20260503071403 37 223 0.0 0.0 0.00 0.11 0.00 92 1009.8
20260503070403 37 223 0.0 0.0 0.00 0.11 0.00 92 1009.8
20260503054403 37 223 0.0 0.0 0.00 0.11 0.00 91 1010.2
20260503053424 37 223 0.0 0.0 0.00 0.11 0.00 91 1010.3
20260503052403 37 223 0.0 0.0 0.00 0.11 0.00 91 1010.3
20260503051403 37 222 0.0 1.0 0.00 0.11 0.00 91 1010.4
20260503050403 37 223 0.0 0.0 0.00 0.11 0.00 91 1010.5
20260503045403 37 223 0.0 2.0 0.00 0.11 0.00 91 1010.6
20260503044424 38 222 0.0 3.0 0.00 0.11 0.00 91 1010.7
20260503043403 38 223 0.0 0.0 0.00 0.11 0.00 91 1010.9
20260503042403 38 223 0.0 0.0 0.00 0.11 0.00 91 1010.8
20260503041403 38 223 0.0 0.0 0.00 0.11 0.00 90 1010.9
20260503040403 38 223 0.0 0.0 0.00 0.11 0.00 90 1011.0
20260503035403 38 223 0.0 1.0 0.00 0.11 0.11 90 1011.0
20260503034402 38 222 0.0 1.0 0.00 0.11 0.11 90 1011.1
20260503033403 38 223 0.0 0.0 0.00 0.11 0.11 90 1011.2
20260503032424 38 223 0.0 0.0 0.00 0.11 0.11 90 1011.2
20260503031404 38 223 0.0 0.0 0.00 0.11 0.11 89 1011.2
20260503030425 38 223 0.0 0.0 0.00 0.11 0.11 89 1011.3
20260503025404 38 223 0.0 3.0 0.00 0.11 0.11 89 1011.3
20260503024404 38 222 0.0 3.0 0.00 0.11 0.11 89 1011.4
20260503023404 38 253 0.0 0.0 0.00 0.11 0.11 89 1011.5
20260503022404 38 253 0.0 5.0 0.00 0.11 0.11 89 1011.5
20260503021404 38 252 1.0 4.0 0.00 0.11 0.11 89 1011.6
20260503015404 39 249 1.0 3.0 0.02 0.11 0.11 89 1011.8
20260503014404 39 250 0.0 2.0 0.01 0.10 0.10 89 1011.8
20260503013424 39 250 0.0 3.0 0.01 0.10 0.10 88 1011.8
20260503012404 39 249 0.0 6.0 0.01 0.10 0.10 88 1011.8
20260503010404 39 272 2.0 4.0 0.00 0.09 0.09 89 1011.7
20260503004404 40 274 0.0 0.0 0.01 0.09 0.09 89 1011.5
20260503002404 40 274 0.0 0.0 0.00 0.08 0.08 88 1011.3
20260503001425 40 274 0.0 0.0 0.00 0.08 0.08 88 1011.2
20260503000404 40 274 0.0 0.0 0.00 0.08 0.08 87 1011.0
20260502235425 40 274 0.0 0.0 0.01 0.08 0.08 87 1011.0
20260502234403 40 274 0.0 0.0 0.01 0.08 0.08 86 1010.9
20260502233404 40 274 0.0 0.0 0.01 0.08 0.08 86 1010.9
20260502232404 41 274 0.0 6.0 0.01 0.08 0.08 86 1010.9
20260502231425 41 272 0.0 3.0 0.01 0.08 0.08 87 1010.9
20260502230404 41 271 0.0 2.0 0.01 0.08 0.08 87 1010.8
20260502225403 41 271 2.0 7.0 0.00 0.07 0.07 86 1010.8
20260502224404 41 275 3.0 9.0 0.00 0.07 0.07 84 1010.7
20260502223404 42 262 2.0 8.0 0.00 0.07 0.07 83 1010.6
20260502222404 42 277 0.0 0.0 0.00 0.07 0.07 84 1010.6
20260502221404 42 277 0.0 0.0 0.00 0.07 0.07 84 1010.5
20260502220403 42 277 0.0 1.0 0.00 0.07 0.07 84 1010.5
20260502215404 42 276 2.0 6.0 0.00 0.07 0.07 83 1010.5
20260502214403 42 275 1.0 8.0 0.00 0.07 0.07 83 1010.5
20260502213404 42 266 3.0 7.0 0.00 0.07 0.07 83 1010.5
20260502212424 42 280 0.0 9.0 0.00 0.07 0.07 84 1010.5
20260502211404 42 294 1.0 11.0 0.00 0.07 0.07 84 1010.4